DECAYED

OBJECT F, 49320 (Decayed)

Orbit data source: Space-Track

You're viewing an Uncataloged Satellite

Recently launched and/or uncataloged satellites may have evolving metadata. Metadata may include but not limited to: Owner, Maufacturer, Bus, Motor, and Mission.

OBJECT F, 49320 was a Chinese satellite in LEO that was launched on Thu, 14 Oct 2021 UTC via a CHANG ZHENG 2D launch vehicle from the Taiyaun Space Center, China (TSC). Unknown objects in Earth's orbit typically refer to objects detected orbiting the Earth but have not yet been identified or cataloged. These objects could be anything from previously untracked satellites, spent rocket stages, debris from satellite collisions, or even natural meteoroids temporarily captured by Earth's gravity. This object's orbit decayed before it could be identified.

Not visible in the next 10 days
Identifier
49320, 2021-091F
Orbit
Decayed
Country
Flag of CNCN / PRC
Related business
None
Manufacturer
Unknown
Mission
Decayed Commercial Imaging
Bus & Motor
Unknown
Mass
Unknown
Launch date (UTC)
2021-10-14 (5 years ago)
Launch vehicle
CHANG ZHENG 2D
Launch site
Taiyaun Space Center, China (TSC)
Object type
Unknown
Shape & HBR
Box, 0.1 m
Radar Cross Section
0.080 m², Medium (>0.1 m² and < 1m²)

Expand to show TLE details & history
Last TLE update: 1 year ago

TLE from 1 year ago
0 OBJECT F
1 49320U 21091F   25009.95727642  .16356313  26291-5  31923-3 0  9993
2 49320  97.3770 222.0857 0007397 253.2293 106.8198 16.46945201181103
Epoch: 2025-01-09T22:58Z
TLE epoch observation values (Epoch: 2025-01-09T22:58:28.682Z)
Latitude
-0.00012°
Longitude
127.73792°
Altitude
152.054 km
Speed
7.814 km/s
True Right ascension
14h 48m 20s
True Declination
0° 00' 00"
Sunlit
Object was in daylight at epoch
Visualization orbit readout
Latitude
Unknown
Longitude
Unknown
Altitude
Unknown
Speed
Unknown
Apparent Right ascension
Unknown
Apparent Declination
Unknown
Sunlit
N/A
Visualization observer readout
Local Sidereal Time
21:36:30
Azimuth
Unknown
Elevation
Unknown
Doppler factor
Unknown
Orbital elements
Apogee altitude
149.014 km
Perigee altitude
139.365 km
Semi-major axis
6,522.327 km
Eccentricity
0.00074
Inclination
97.377°
RAAN
222.0857°
Arg. of periapsis
253.2293°
True anomaly
106.90092°
Mean anomaly
106.8198°
Eccentric anomaly
106.86036°
Mean motion
4.1204 °/min
Orbital period
87.37 mins
BSTAR
0.00031923
Loading maneuver chart data...
Computing Atmospheric mass density...
Loading historical data...
Loading historical data...
Loading historical data...
Loading historical data...
Loading historical data...
Loading historical data...
Loading historical data...

Documentation

Showing up to 5 results
|